QPF
0.02 0.02 0.01 0.02 0.01 0.00 0.00 0.00 0.00 0.00 0.00 0.00 0.01 0.03 0.03 0.02 0.03 0.02 0.02 0.02 0.02 0.02 0.02 0.02 0.02 0.02 0.02 0.01 0.01 0.01 0.01 0.02 0.03 0.05 0.04 0.03 0.02 0.02 0.03 0.04 0.06 0.08 0.07 0.06
0.02 0.01 0.00 0.01 0.00 0.00 0.00 0.00 0.00 0.00 0.00 0.01 0.02 0.02 0.02 0.02 0.03 0.03 0.03 0.03 0.03 0.03 0.03 0.02 0.03 0.02 0.02 0.01 0.01 0.01 0.01 0.01 0.02 0.03 0.03 0.03 0.01 0.01 0.02 0.03 0.04 0.05 0.06 0.06
0.02 0.00 0.00 0.01 0.01 0.00 0.00 0.00 0.00 0.00 0.00 0.01 0.02 0.02 0.01 0.02 0.03 0.04 0.04 0.03 0.03 0.06 0.05 0.03 0.03 0.02 0.01 0.01 0.00 0.00 0.00 0.00 0.01 0.01 0.03 0.02 0.02 0.01 0.02 0.02 0.03 0.04 0.04 0.04
0.01 0.00 0.00 0.01 0.01 0.00 0.00 0.00 0.00 0.00 0.00 0.01 0.01 0.02 0.01 0.01 0.02 0.04 0.05 0.04 0.03 0.06 0.04 0.03 0.02 0.02 0.02 0.02 0.01 0.00 0.00 0.00 0.00 0.01 0.01 0.02 0.03 0.03 0.03 0.03 0.03 0.04 0.04 0.04
0.01 0.00 0.00 0.00 0.00 0.00 0.00 0.00 0.00 0.00 0.01 0.01 0.01 0.01 0.01 0.01 0.01 0.03 0.05 0.04 0.03 0.03 0.02 0.02 0.02 0.02 0.02 0.01 0.01 0.00 0.00 0.01 0.01 0.01 0.01 0.01 0.03 0.04 0.05 0.05 0.04 0.04 0.04 0.03
0.00 0.00 0.00 0.00 0.00 0.00 0.00 0.00 0.00 0.01 0.01 0.01 0.01 0.01 0.02 0.02 0.02 0.02 0.02 0.03 0.02 0.02 0.01 0.02 0.03 0.01 0.01 0.01 0.01 0.00 0.00 0.00 0.01 0.01 0.01 0.01 0.02 0.04 0.06 0.06 0.05 0.04 0.04 0.03
0.00 0.00 0.00 0.00 0.00 0.00 0.00 0.01 0.01 0.02 0.02 0.02 0.00 0.01 0.03 0.03 0.02 0.02 0.02 0.02 0.02 0.01 0.01 0.01 0.01 0.01 0.01 0.01 0.01 0.01 0.01 0.01 0.01 0.02 0.02 0.02 0.03 0.06 0.06 0.05 0.05 0.04 0.03 0.03
0.00 0.00 0.00 0.00 0.00 0.00 0.00 0.01 0.02 0.02 0.01 0.01 0.01 0.02 0.03 0.02 0.01 0.01 0.01 0.01 0.01 0.01 0.01 0.01 0.01 0.00 0.00 0.01 0.02 0.03 0.02 0.01 0.02 0.03 0.03 0.02 0.05 0.08 0.07 0.06 0.05 0.05 0.04 0.03
0.01 0.00 0.00 0.00 0.01 0.00 0.00 0.00 0.01 0.03 0.02 0.01 0.02 0.02 0.02 0.01 0.00 0.01 0.01 0.01 0.01 0.01 0.01 0.01 0.01 0.00 0.00 0.01 0.02 0.03 0.03 0.03 0.03 0.03 0.04 0.06 0.08 0.09 0.08 0.07 0.05 0.05 0.05 0.03
0.01 0.01 0.00 0.01 0.01 0.00 0.00 0.00 0.01 0.03 0.03 0.02 0.01 0.01 0.02 0.01 0.01 0.01 0.01 0.01 0.01 0.01 0.01 0.01 0.01 0.00 0.00 0.00 0.01 0.02 0.04 0.04 0.03 0.03 0.04 0.07 0.09 0.09 0.09 0.08 0.06 0.06 0.05 0.04
0.01 0.02 0.01 0.01 0.01 0.01 0.01 0.01 0.02 0.03 0.04 0.03 0.01 0.02 0.02 0.02 0.01 0.01 0.01 0.01 0.01 0.01 0.01 0.01 0.01 0.00 0.00 0.00 0.01 0.01 0.02 0.03 0.02 0.02 0.02 0.05 0.07 0.07 0.09 0.08 0.08 0.06 0.04 0.03
0.02 0.02 0.01 0.01 0.02 0.01 0.01 0.02 0.02 0.03 0.02 0.02 0.01 0.02 0.01 0.01 0.01 0.01 0.01 0.01 0.01 0.01 0.01 0.01 0.01 0.01 0.00 0.01 0.01 0.01 0.01 0.02 0.02 0.02 0.03 0.03 0.04 0.05 0.07 0.07 0.09 0.07 0.04 0.02
0.02 0.02 0.02 0.01 0.01 0.01 0.01 0.01 0.01 0.02 0.02 0.01 0.01 0.01 0.01 0.00 0.00 0.00 0.00 0.00 0.00 0.01 0.01 0.01 0.01 0.01 0.01 0.01 0.01 0.01 0.01 0.01 0.02 0.02 0.03 0.03 0.03 0.03 0.04 0.04 0.07 0.08 0.05 0.03
0.02 0.02 0.02 0.02 0.02 0.02 0.01 0.01 0.01 0.01 0.02 0.01 0.01 0.01 0.01 0.00 0.00 0.00 0.00 0.00 0.00 0.01 0.01 0.01 0.01 0.02 0.01 0.01 0.01 0.01 0.01 0.01 0.02 0.02 0.03 0.04 0.04 0.03 0.03 0.03 0.03 0.05 0.06 0.05
0.01 0.01 0.01 0.02 0.02 0.01 0.01 0.01 0.01 0.01 0.02 0.02 0.01 0.01 0.01 0.01 0.01 0.01 0.01 0.00 0.00 0.01 0.01 0.01 0.02 0.02 0.02 0.02 0.01 0.01 0.01 0.01 0.02 0.03 0.03 0.04 0.05 0.04 0.03 0.03 0.03 0.03 0.04 0.04
0.01 0.01 0.01 0.01 0.02 0.01 0.00 0.00 0.01 0.01 0.02 0.02 0.01 0.01 0.01 0.01 0.01 0.01 0.01 0.01 0.01 0.01 0.01 0.01 0.02 0.02 0.02 0.03 0.02 0.01 0.01 0.01 0.02 0.03 0.04 0.04 0.05 0.05 0.05 0.04 0.03 0.04 0.04 0.03
0.01 0.01 0.01 0.01 0.01 0.01 0.01 0.01 0.01 0.02 0.02 0.01 0.01 0.01 0.01 0.01 0.01 0.01 0.01 0.01 0.01 0.01 0.01 0.01 0.02 0.02 0.02 0.02 0.02 0.02 0.02 0.02 0.02 0.03 0.03 0.04 0.05 0.05 0.05 0.05 0.04 0.04 0.04 0.04
0.01 0.01 0.01 0.01 0.01 0.01 0.01 0.01 0.01 0.02 0.02 0.02 0.02 0.01 0.01 0.02 0.02 0.02 0.02 0.01 0.01 0.01 0.01 0.02 0.02 0.02 0.02 0.02 0.02 0.02 0.02 0.02 0.03 0.03 0.04 0.04 0.05 0.05 0.05 0.05 0.04 0.04 0.04 0.05
0.00 0.01 0.02 0.02 0.01 0.01 0.01 0.01 0.01 0.01 0.02 0.02 0.01 0.01 0.01 0.01 0.01 0.01 0.01 0.01 0.01 0.02 0.02 0.02 0.02 0.02 0.02 0.02 0.02 0.02 0.02 0.02 0.03 0.03 0.04 0.05 0.05 0.05 0.05 0.05 0.04 0.04 0.04 0.05
0.00 0.01 0.02 0.02 0.02 0.01 0.01 0.01 0.01 0.01 0.02 0.01 0.01 0.01 0.01 0.00 0.01 0.01 0.01 0.01 0.01 0.01 0.01 0.01 0.02 0.01 0.01 0.02 0.02 0.02 0.03 0.03 0.03 0.04 0.04 0.04 0.05 0.05 0.06 0.06 0.05 0.04 0.05 0.06
0.00 0.01 0.01 0.02 0.02 0.01 0.01 0.01 0.00 0.01 0.02 0.01 0.01 0.01 0.01 0.01 0.01 0.01 0.01 0.01 0.01 0.01 0.01 0.01 0.01 0.01 0.02 0.02 0.02 0.02 0.03 0.04 0.05 0.05 0.04 0.04 0.04 0.04 0.05 0.06 0.05 0.05 0.05 0.06
0.01 0.01 0.01 0.01 0.01 0.01 0.01 0.01 0.01 0.02 0.01 0.01 0.00 0.01 0.01 0.01 0.01 0.01 0.01 0.01 0.01 0.01 0.00 0.00 0.01 0.01 0.01 0.01 0.02 0.02 0.03 0.04 0.04 0.04 0.04 0.04 0.04 0.04 0.04 0.04 0.04 0.04 0.05 0.05
0.01 0.01 0.01 0.01 0.01 0.01 0.01 0.01 0.01 0.01 0.01 0.01 0.00 0.00 0.00 0.01 0.00 0.00 0.00 0.00 0.00 0.00 0.00 0.00 0.01 0.01 0.01 0.01 0.02 0.02 0.02 0.03 0.03 0.03 0.04 0.04 0.04 0.04 0.04 0.03 0.04 0.04 0.04 0.04
0.00 0.00 0.01 0.01 0.01 0.01 0.01 0.01 0.01 0.01 0.01 0.01 0.01 0.00 0.00 0.00 0.00 0.01 0.01 0.01 0.00 0.00 0.00 0.00 0.00 0.01 0.01 0.01 0.01 0.02 0.02 0.02 0.02 0.02 0.03 0.03 0.03 0.03 0.03 0.03 0.03 0.03 0.04 0.04
0.00 0.01 0.01 0.01 0.01 0.01 0.01 0.01 0.01 0.01 0.01 0.02 0.01 0.01 0.01 0.01 0.00 0.01 0.01 0.01 0.01 0.01 0.00 0.01 0.01 0.01 0.01 0.01 0.01 0.01 0.01 0.01 0.01 0.01 0.01 0.02 0.02 0.02 0.02 0.02 0.03 0.04 0.04 0.04
0.01 0.01 0.01 0.01 0.01 0.01 0.01 0.01 0.01 0.01 0.02 0.02 0.02 0.02 0.02 0.01 0.01 0.01 0.01 0.01 0.01 0.01 0.01 0.01 0.00 0.01 0.01 0.01 0.01 0.01 0.01 0.01 0.01 0.01 0.01 0.01 0.01 0.01 0.02 0.02 0.02 0.02 0.03 0.04
MSLP
1021.22 1021.65 1022.11 1022.55 1022.95 1023.29 1023.53 1023.67 1023.68 1023.58 1023.36 1023.05 1022.65 1022.22 1021.77 1021.35 1021.00 1020.73 1020.59 1020.56 1020.67 1020.88 1021.18 1021.54 1021.92 1022.29 1022.61 1022.88 1023.08 1023.22 1023.32 1023.39 1023.46 1023.53 1023.61 1023.70 1023.79 1023.85 1023.87 1023.84 1023.75 1023.61 1023.43 1023.23
1021.74 1022.07 1022.41 1022.74 1023.05 1023.32 1023.53 1023.66 1023.71 1023.65 1023.49 1023.21 1022.85 1022.41 1021.95 1021.50 1021.12 1020.83 1020.66 1020.64 1020.75 1020.97 1021.28 1021.64 1021.99 1022.32 1022.60 1022.81 1022.96 1023.07 1023.15 1023.23 1023.33 1023.45 1023.60 1023.75 1023.88 1023.99 1024.04 1024.02 1023.95 1023.83 1023.68 1023.52
1022.14 1022.39 1022.63 1022.87 1023.10 1023.32 1023.51 1023.66 1023.76 1023.76 1023.67 1023.46 1023.16 1022.77 1022.35 1021.92 1021.56 1021.28 1021.13 1021.12 1021.23 1021.45 1021.74 1022.05 1022.35 1022.60 1022.78 1022.90 1022.98 1023.03 1023.08 1023.16 1023.27 1023.43 1023.62 1023.81 1023.98 1024.12 1024.19 1024.20 1024.15 1024.06 1023.94 1023.83
1022.45 1022.63 1022.80 1022.97 1023.15 1023.34 1023.54 1023.72 1023.86 1023.94 1023.93 1023.81 1023.60 1023.30 1022.95 1022.60 1022.30 1022.08 1021.98 1021.99 1022.11 1022.32 1022.56 1022.80 1023.00 1023.15 1023.22 1023.24 1023.22 1023.20 1023.21 1023.26 1023.38 1023.55 1023.75 1023.96 1024.15 1024.29 1024.38 1024.41 1024.38 1024.32 1024.24 1024.16
1022.69 1022.83 1022.96 1023.10 1023.26 1023.44 1023.64 1023.85 1024.04 1024.19 1024.26 1024.23 1024.12 1023.93 1023.69 1023.45 1023.24 1023.11 1023.08 1023.14 1023.28 1023.46 1023.66 1023.82 1023.93 1023.96 1023.92 1023.84 1023.73 1023.64 1023.60 1023.63 1023.72 1023.88 1024.07 1024.27 1024.45 1024.59 1024.67 1024.69 1024.68 1024.63 1024.58 1024.53
1022.91 1023.03 1023.14 1023.27 1023.42 1023.60 1023.81 1024.04 1024.27 1024.46 1024.59 1024.64 1024.62 1024.54 1024.42 1024.31 1024.22 1024.20 1024.26 1024.38 1024.55 1024.73 1024.89 1024.99 1025.02 1024.96 1024.84 1024.67 1024.50 1024.36 1024.27 1024.26 1024.33 1024.46 1024.62 1024.78 1024.93 1025.03 1025.09 1025.10 1025.07 1025.03 1024.98 1024.94
1023.10 1023.22 1023.34 1023.46 1023.61 1023.79 1024.00 1024.23 1024.46 1024.66 1024.82 1024.92 1024.97 1024.99 1024.99 1025.00 1025.05 1025.15 1025.31 1025.52 1025.74 1025.95 1026.10 1026.17 1026.16 1026.05 1025.88 1025.67 1025.47 1025.29 1025.19 1025.15 1025.19 1025.27 1025.38 1025.50 1025.59 1025.64 1025.65 1025.63 1025.58 1025.52 1025.46 1025.40
1023.26 1023.39 1023.52 1023.65 1023.79 1023.96 1024.14 1024.33 1024.52 1024.69 1024.84 1024.96 1025.05 1025.14 1025.24 1025.37 1025.56 1025.80 1026.08 1026.39 1026.69 1026.95 1027.13 1027.22 1027.21 1027.11 1026.94 1026.74 1026.53 1026.37 1026.25 1026.20 1026.21 1026.25 1026.31 1026.36 1026.39 1026.38 1026.33 1026.26 1026.18 1026.09 1026.00 1025.92
1023.37 1023.51 1023.64 1023.77 1023.89 1024.02 1024.14 1024.26 1024.38 1024.48 1024.58 1024.67 1024.78 1024.92 1025.10 1025.35 1025.67 1026.05 1026.47 1026.90 1027.30 1027.65 1027.90 1028.05 1028.09 1028.04 1027.92 1027.76 1027.60 1027.46 1027.36 1027.31 1027.29 1027.29 1027.29 1027.28 1027.24 1027.17 1027.07 1026.95 1026.82 1026.70 1026.58 1026.45
1023.42 1023.55 1023.68 1023.78 1023.86 1023.92 1023.96 1023.98 1023.98 1023.99 1024.00 1024.06 1024.16 1024.34 1024.60 1024.96 1025.42 1025.94 1026.50 1027.07 1027.60 1028.05 1028.40 1028.64 1028.76 1028.79 1028.74 1028.65 1028.56 1028.47 1028.40 1028.35 1028.31 1028.28 1028.23 1028.15 1028.05 1027.92 1027.77 1027.62 1027.46 1027.30 1027.14 1026.98
1023.40 1023.51 1023.60 1023.65 1023.67 1023.64 1023.57 1023.47 1023.35 1023.25 1023.18 1023.19 1023.29 1023.51 1023.85 1024.33 1024.92 1025.59 1026.30 1027.01 1027.67 1028.24 1028.69 1029.03 1029.24 1029.36 1029.39 1029.39 1029.35 1029.31 1029.27 1029.22 1029.17 1029.10 1029.01 1028.88 1028.73 1028.55 1028.37 1028.18 1028.00 1027.82 1027.63 1027.43
1023.32 1023.39 1023.43 1023.42 1023.34 1023.21 1023.03 1022.80 1022.58 1022.38 1022.25 1022.23 1022.35 1022.63 1023.07 1023.67 1024.41 1025.22 1026.08 1026.91 1027.69 1028.36 1028.91 1029.33 1029.62 1029.80 1029.91 1029.96 1029.97 1029.96 1029.94 1029.89 1029.82 1029.71 1029.58 1029.41 1029.22 1029.01 1028.80 1028.59 1028.39 1028.19 1027.99 1027.76
1023.24 1023.24 1023.21 1023.12 1022.95 1022.72 1022.43 1022.11 1021.79 1021.54 1021.39 1021.38 1021.55 1021.92 1022.48 1023.22 1024.09 1025.05 1026.02 1026.97 1027.83 1028.58 1029.19 1029.65 1029.98 1030.20 1030.34 1030.42 1030.45 1030.45 1030.42 1030.35 1030.25 1030.12 1029.94 1029.73 1029.51 1029.27 1029.04 1028.82 1028.61 1028.40 1028.18 1027.93
1023.17 1023.11 1023.00 1022.82 1022.57 1022.25 1021.88 1021.50 1021.16 1020.90 1020.77 1020.82 1021.09 1021.57 1022.27 1023.14 1024.15 1025.22 1026.30 1027.31 1028.22 1028.99 1029.61 1030.07 1030.40 1030.61 1030.74 1030.80 1030.82 1030.81 1030.75 1030.66 1030.52 1030.35 1030.14 1029.90 1029.64 1029.38 1029.13 1028.90 1028.67 1028.44 1028.20 1027.93
1023.17 1023.04 1022.85 1022.60 1022.28 1021.91 1021.51 1021.13 1020.80 1020.58 1020.54 1020.70 1021.09 1021.71 1022.54 1023.55 1024.66 1025.82 1026.94 1027.98 1028.88 1029.63 1030.20 1030.61 1030.89 1031.05 1031.13 1031.16 1031.14 1031.09 1030.99 1030.87 1030.69 1030.48 1030.23 1029.96 1029.68 1029.39 1029.12 1028.86 1028.61 1028.36 1028.09 1027.79
1023.24 1023.04 1022.79 1022.50 1022.15 1021.78 1021.39 1021.05 1020.80 1020.69 1020.77 1021.06 1021.60 1022.36 1023.31 1024.42 1025.60 1026.79 1027.91 1028.91 1029.76 1030.43 1030.91 1031.23 1031.42 1031.51 1031.52 1031.49 1031.42 1031.32 1031.20 1031.03 1030.83 1030.58 1030.31 1030.00 1029.69 1029.37 1029.07 1028.77 1028.49 1028.20 1027.89 1027.55
1023.35 1023.11 1022.84 1022.53 1022.20 1021.87 1021.56 1021.31 1021.18 1021.21 1021.43 1021.88 1022.55 1023.43 1024.47 1025.63 1026.82 1027.98 1029.05 1029.97 1030.71 1031.26 1031.62 1031.83 1031.92 1031.92 1031.87 1031.78 1031.67 1031.54 1031.38 1031.20 1030.97 1030.70 1030.40 1030.07 1029.72 1029.37 1029.03 1028.69 1028.35 1028.02 1027.66 1027.27
1023.47 1023.22 1022.96 1022.69 1022.43 1022.18 1021.99 1021.89 1021.91 1022.09 1022.47 1023.05 1023.82 1024.77 1025.85 1027.00 1028.14 1029.22 1030.17 1030.96 1031.56 1031.97 1032.21 1032.30 1032.30 1032.23 1032.12 1032.00 1031.86 1031.72 1031.56 1031.36 1031.13 1030.85 1030.53 1030.18 1029.80 1029.41 1029.02 1028.63 1028.24 1027.84 1027.42 1026.98
1023.56 1023.34 1023.13 1022.94 1022.79 1022.68 1022.64 1022.70 1022.88 1023.22 1023.72 1024.40 1025.23 1026.19 1027.24 1028.31 1029.35 1030.29 1031.08 1031.71 1032.16 1032.43 1032.55 1032.56 1032.49 1032.37 1032.24 1032.11 1031.98 1031.85 1031.70 1031.51 1031.29 1031.01 1030.68 1030.30 1029.89 1029.47 1029.03 1028.59 1028.14 1027.69 1027.21 1026.71
1023.57 1023.42 1023.31 1023.25 1023.24 1023.30 1023.43 1023.66 1023.99 1024.45 1025.05 1025.77 1026.61 1027.52 1028.48 1029.42 1030.29 1031.06 1031.68 1032.14 1032.44 1032.59 1032.62 1032.57 1032.47 1032.34 1032.22 1032.12 1032.01 1031.91 1031.78 1031.62 1031.40 1031.12 1030.78 1030.39 1029.96 1029.50 1029.02 1028.53 1028.04 1027.53 1027.01 1026.46
1023.52 1023.47 1023.50 1023.59 1023.75 1023.98 1024.28 1024.66 1025.13 1025.68 1026.32 1027.04 1027.82 1028.64 1029.45 1030.22 1030.91 1031.49 1031.94 1032.24 1032.42 1032.48 1032.45 1032.37 1032.27 1032.17 1032.09 1032.02 1031.96 1031.89 1031.80 1031.65 1031.44 1031.15 1030.80 1030.39 1029.94 1029.45 1028.94 1028.41 1027.88 1027.34 1026.78 1026.20
1023.42 1023.51 1023.68 1023.94 1024.28 1024.68 1025.14 1025.65 1026.21 1026.82 1027.46 1028.13 1028.82 1029.49 1030.14 1030.72 1031.22 1031.62 1031.91 1032.08 1032.17 1032.17 1032.13 1032.06 1031.99 1031.93 1031.90 1031.88 1031.86 1031.81 1031.73 1031.58 1031.36 1031.07 1030.70 1030.27 1029.79 1029.27 1028.74 1028.20 1027.64 1027.08 1026.51 1025.92
1023.34 1023.57 1023.90 1024.33 1024.82 1025.37 1025.96 1026.57 1027.19 1027.81 1028.42 1029.01 1029.57 1030.10 1030.57 1030.98 1031.31 1031.55 1031.71 1031.80 1031.83 1031.81 1031.77 1031.73 1031.71 1031.70 1031.71 1031.72 1031.72 1031.68 1031.59 1031.43 1031.18 1030.86 1030.46 1030.00 1029.50 1028.97 1028.42 1027.87 1027.31 1026.75 1026.17 1025.58
1023.32 1023.70 1024.18 1024.75 1025.38 1026.05 1026.73 1027.40 1028.04 1028.64 1029.19 1029.69 1030.14 1030.52 1030.84 1031.10 1031.29 1031.42 1031.50 1031.53 1031.54 1031.52 1031.51 1031.50 1031.52 1031.54 1031.57 1031.59 1031.58 1031.53 1031.40 1031.19 1030.91 1030.54 1030.10 1029.62 1029.09 1028.55 1028.00 1027.45 1026.90 1026.35 1025.78 1025.20
1023.44 1023.95 1024.55 1025.23 1025.96 1026.71 1027.44 1028.13 1028.76 1029.32 1029.81 1030.22 1030.56 1030.83 1031.04 1031.19 1031.29 1031.35 1031.38 1031.39 1031.39 1031.39 1031.40 1031.42 1031.45 1031.49 1031.51 1031.51 1031.46 1031.35 1031.17 1030.90 1030.56 1030.15 1029.67 1029.16 1028.62 1028.08 1027.53 1026.99 1026.45 1025.92 1025.37 1024.80
1023.73 1024.34 1025.03 1025.78 1026.57 1027.35 1028.09 1028.77 1029.37 1029.89 1030.31 1030.65 1030.91 1031.11 1031.25 1031.34 1031.39 1031.42 1031.44 1031.45 1031.45 1031.46 1031.48 1031.50 1031.52 1031.52 1031.50 1031.44 1031.33 1031.15 1030.90 1030.57 1030.18 1029.72 1029.22 1028.69 1028.15 1027.61 1027.08 1026.55 1026.03 1025.51 1024.97 1024.42
Thickness
5574 5563 5556 5557 5557 5558 5554 5550 5547 5553 5558 5552 5545 5544 5545 5545 5545 5544 5543 5544 5546 5548 5552 5555 5557 5558 5559 5561 5562 5564 5565 5567 5569 5572 5574 5577 5579 5582 5585 5588 5591 5594 5596 5598
5555 5550 5554 5554 5550 5547 5543 5537 5534 5539 5544 5539 5531 5530 5529 5531 5530 5529 5529 5529 5531 5534 5537 5541 5542 5543 5545 5547 5549 5552 5553 5555 5557 5560 5562 5565 5567 5569 5573 5576 5580 5583 5586 5589
5544 5543 5547 5544 5537 5533 5531 5524 5522 5522 5525 5525 5519 5517 5517 5518 5516 5515 5515 5514 5516 5518 5520 5523 5526 5528 5530 5532 5535 5538 5540 5542 5545 5547 5549 5552 5555 5557 5561 5564 5568 5572 5575 5578
5532 5533 5533 5528 5524 5521 5516 5518 5515 5512 5503 5497 5506 5491 5501 5501 5498 5496 5494 5493 5495 5498 5502 5506 5509 5512 5514 5517 5520 5524 5526 5529 5531 5534 5536 5539 5542 5544 5548 5551 5555 5559 5563 5567
5519 5519 5516 5513 5511 5509 5504 5506 5503 5501 5491 5484 5485 5476 5480 5481 5477 5474 5474 5476 5478 5481 5485 5489 5491 5495 5499 5502 5505 5509 5512 5515 5518 5521 5523 5526 5528 5530 5534 5538 5542 5547 5551 5555
5509 5509 5504 5500 5500 5498 5493 5490 5489 5482 5474 5469 5474 5464 5461 5452 5455 5456 5459 5461 5462 5465 5469 5472 5476 5480 5484 5487 5490 5494 5498 5501 5504 5507 5510 5513 5515 5517 5520 5525 5529 5534 5539 5543
5490 5493 5491 5489 5487 5484 5477 5466 5459 5458 5453 5460 5465 5454 5439 5440 5441 5441 5442 5444 5446 5449 5453 5457 5460 5464 5468 5472 5476 5480 5483 5487 5490 5493 5496 5500 5502 5505 5509 5513 5517 5522 5526 5530
5466 5467 5474 5473 5470 5465 5461 5455 5443 5438 5439 5445 5448 5436 5426 5430 5429 5429 5430 5430 5432 5434 5437 5441 5444 5447 5451 5456 5460 5464 5469 5472 5476 5479 5482 5486 5489 5492 5496 5500 5505 5510 5514 5519
5451 5456 5464 5462 5460 5457 5449 5438 5437 5425 5420 5420 5426 5417 5419 5420 5416 5415 5414 5414 5415 5418 5422 5426 5429 5432 5436 5440 5445 5448 5453 5458 5461 5465 5468 5473 5476 5480 5483 5488 5493 5498 5502 5506
5444 5437 5447 5448 5450 5445 5439 5430 5416 5411 5411 5412 5416 5407 5401 5399 5399 5399 5397 5397 5400 5404 5407 5410 5413 5417 5422 5426 5429 5433 5437 5442 5446 5450 5454 5459 5462 5466 5470 5476 5481 5485 5490 5494
5433 5425 5428 5430 5429 5426 5423 5415 5407 5399 5398 5396 5392 5396 5394 5388 5386 5383 5383 5383 5385 5389 5391 5395 5399 5403 5407 5411 5414 5418 5422 5427 5430 5435 5440 5445 5449 5453 5458 5463 5468 5473 5477 5481
5420 5409 5405 5413 5417 5416 5411 5401 5392 5384 5380 5376 5373 5379 5382 5376 5374 5372 5371 5371 5373 5376 5378 5381 5384 5389 5393 5396 5400 5403 5407 5412 5416 5421 5426 5432 5436 5441 5446 5450 5455 5460 5464 5468
5413 5397 5392 5401 5400 5397 5392 5388 5383 5374 5366 5360 5358 5366 5369 5362 5361 5359 5359 5358 5360 5363 5365 5367 5371 5374 5377 5381 5385 5389 5393 5398 5403 5407 5412 5418 5423 5428 5432 5437 5442 5447 5451 5455
5409 5388 5383 5385 5387 5379 5376 5376 5371 5363 5352 5350 5352 5353 5353 5348 5345 5345 5345 5345 5347 5349 5352 5355 5357 5360 5363 5367 5371 5376 5380 5385 5390 5395 5399 5404 5410 5415 5420 5425 5429 5434 5438 5443
5393 5379 5375 5375 5377 5373 5370 5367 5363 5353 5346 5341 5342 5339 5339 5334 5333 5332 5332 5334 5337 5338 5340 5343 5345 5348 5352 5356 5360 5364 5368 5373 5378 5383 5388 5392 5397 5402 5407 5412 5417 5421 5426 5430
5376 5369 5366 5367 5372 5366 5361 5357 5355 5350 5342 5336 5335 5331 5327 5323 5323 5322 5321 5324 5326 5327 5329 5331 5334 5337 5341 5345 5349 5353 5358 5362 5366 5371 5376 5380 5385 5389 5394 5400 5405 5409 5413 5417
5362 5356 5351 5351 5355 5354 5343 5340 5341 5338 5329 5324 5320 5316 5314 5313 5315 5313 5313 5313 5315 5317 5319 5321 5323 5326 5330 5334 5338 5342 5346 5351 5355 5360 5364 5369 5373 5377 5382 5388 5393 5397 5401 5404
5354 5346 5338 5336 5337 5330 5333 5332 5330 5324 5316 5311 5308 5305 5304 5304 5304 5305 5305 5304 5305 5308 5310 5312 5313 5318 5321 5325 5329 5332 5336 5340 5344 5348 5352 5356 5361 5366 5370 5376 5381 5385 5389 5393
5348 5339 5325 5323 5316 5319 5324 5324 5317 5311 5307 5301 5299 5298 5298 5297 5299 5300 5300 5298 5297 5299 5301 5303 5305 5309 5312 5315 5319 5322 5326 5330 5334 5337 5341 5345 5349 5354 5359 5364 5369 5373 5377 5381
5337 5327 5318 5312 5312 5313 5316 5314 5311 5304 5298 5295 5292 5290 5288 5288 5286 5290 5292 5290 5291 5292 5294 5296 5298 5300 5303 5307 5310 5314 5317 5320 5323 5326 5330 5334 5338 5343 5348 5353 5357 5361 5365 5369
5320 5309 5302 5299 5296 5299 5303 5303 5303 5292 5292 5288 5284 5282 5279 5277 5276 5280 5282 5282 5283 5284 5286 5288 5290 5291 5294 5298 5302 5305 5308 5311 5313 5317 5320 5324 5328 5333 5338 5342 5346 5350 5353 5357
5308 5300 5292 5289 5285 5292 5298 5293 5287 5283 5282 5280 5277 5275 5273 5272 5272 5273 5274 5275 5275 5276 5278 5280 5281 5283 5286 5289 5293 5296 5299 5302 5304 5307 5311 5315 5319 5323 5328 5331 5335 5338 5342 5345
5300 5298 5292 5290 5293 5292 5288 5285 5281 5277 5274 5273 5270 5269 5267 5266 5265 5266 5265 5265 5266 5268 5269 5271 5273 5275 5277 5279 5282 5286 5290 5293 5296 5299 5302 5305 5309 5312 5316 5320 5324 5327 5330 5333
5295 5291 5287 5283 5285 5283 5279 5276 5273 5269 5267 5265 5263 5261 5260 5257 5257 5256 5256 5257 5257 5258 5260 5262 5264 5265 5267 5270 5273 5276 5280 5284 5287 5290 5293 5297 5300 5303 5306 5309 5313 5316 5319 5321
5292 5285 5280 5277 5276 5274 5272 5267 5264 5261 5259 5257 5255 5253 5251 5250 5249 5248 5247 5247 5247 5249 5250 5252 5253 5255 5258 5261 5263 5267 5271 5275 5278 5281 5285 5287 5291 5293 5296 5299 5301 5305 5308 5312
5282 5278 5274 5274 5272 5266 5264 5261 5257 5254 5251 5249 5247 5245 5243 5242 5240 5240 5238 5238 5238 5239 5240 5242 5244 5247 5249 5251 5255 5258 5262 5266 5269 5272 5275 5278 5281 5284 5287 5289 5292 5295 5298 5302